Bullhead City, AZ

11:45 PM MST on November 19, 2017 (GMT -0700)
Laughlin-Bullhead International

Weather History for KIFP - October, 2013

Change the Weather History Date:

Friday, October 4, 2013

  Actual Average Record
Temperature  
Mean Temperature 70 °F -  
Max Temperature 75 °F 92 °F 106 °F (1991)
Min Temperature 64 °F 70 °F 53 °F (2002)
Cooling Degree Days 4    
Growing Degree Days 20 (Base 50)    
Moisture  
Dew Point 21 °F    
Average Humidity 15    
Maximum Humidity 19    
Minimum Humidity 9    
Precipitation  
Precipitation 0.00 in - - ()
Sea Level Pressure  
Sea Level Pressure 30.03 in    
Wind  
Wind Speed 28 mph (North)    
Max Wind Speed 39 mph    
Max Gust Speed 51 mph    
Visibility 10 miles    
Events      
Averages and records for this station are not official NWS values.
T = Trace of Precipitation, MM = Missing Value Source: NWS Daily Summary

Daily Weather History Graph

Daily Weather History Graph

Search for Another Location

Airport or City:

Trip Planner

Search our weather history database for the weather conditions in past years. The results will help you decide how hot, cold, wet, or windy it might be!

Date:

Astronomy

Oct. 04, 2013 Rise Set
Actual Time 6:35 AM MST 6:17 PM MST
Civil Twilight 6:10 AM MST 6:42 PM MST
Nautical Twilight 5:40 AM MST 7:12 PM MST
Astronomical Twilight 5:11 AM MST 7:41 PM MST
Moon 6:14 AM MST (10/4) 6:03 PM MST (10/4)
Length of Visible Light 12h 32m
Length of Day
11h 41m
Waning Crescent, 0% of the Moon is Illuminated
Oct 4
Waning Crescent
Oct 4
New
Oct 11
First Quarter
Oct 18
Full
Oct 26
Last Quarter

Hourly Weather History & Observations

Time (MST) Temp. Dew Point Humidity Pressure Visibility Wind Dir Wind Speed Gust Speed Precip Events Conditions
12:15 AM 71.6 °F 10.4 °F 9% 29.88 in 10.0 mi North 32.2 mph 43.7 mph N/A   Clear
12:35 AM 71.6 °F 12.2 °F 10% 29.88 in 10.0 mi North 33.4 mph 42.6 mph N/A   Clear
12:55 AM 71.6 °F 14.0 °F 11% 29.89 in 10.0 mi North 34.5 mph 44.9 mph N/A   Clear
1:15 AM 71.6 °F 14.0 °F 11% 29.90 in 10.0 mi North 31.1 mph 47.2 mph N/A   Clear
1:35 AM 69.8 °F 15.8 °F 13% 29.90 in 10.0 mi North 39.1 mph 50.6 mph N/A   Clear
1:55 AM 69.8 °F 15.8 °F 13% 29.91 in 10.0 mi North 35.7 mph 48.3 mph N/A   Clear
2:15 AM 68.0 °F 15.8 °F 13% 29.93 in 10.0 mi North 31.1 mph 42.6 mph N/A   Clear
2:35 AM 68.0 °F 15.8 °F 13% 29.93 in 10.0 mi North 26.5 mph 43.7 mph N/A   Clear
2:55 AM 68.0 °F 15.8 °F 13% 29.93 in 10.0 mi North 33.4 mph 43.7 mph N/A   Clear
3:15 AM 68.0 °F 19.4 °F 16% 29.95 in 10.0 mi North 23.0 mph 36.8 mph N/A   Clear
3:35 AM 68.0 °F 17.6 °F 15% 29.95 in 10.0 mi NNE 28.8 mph 35.7 mph N/A   Clear
3:55 AM 68.0 °F 17.6 °F 15% 29.97 in 10.0 mi NNE 26.5 mph 32.2 mph N/A   Clear
4:15 AM 66.2 °F 17.6 °F 15% 29.98 in 10.0 mi North 17.3 mph 33.4 mph N/A   Clear
4:35 AM 66.2 °F 19.4 °F 17% 29.98 in 10.0 mi North 20.7 mph 34.5 mph N/A   Clear
4:55 AM 66.2 °F 17.6 °F 15% 29.98 in 10.0 mi North 21.9 mph 29.9 mph N/A   Clear
5:15 AM 66.2 °F 19.4 °F 17% 29.99 in 10.0 mi North 21.9 mph 31.1 mph N/A   Clear
5:35 AM 66.2 °F 17.6 °F 15% 30.00 in 10.0 mi North 18.4 mph 35.7 mph N/A   Clear
5:55 AM 64.4 °F 17.6 °F 16% 30.01 in 10.0 mi North 19.6 mph 31.1 mph N/A   Clear
6:15 AM 64.4 °F 17.6 °F 16% 30.02 in 10.0 mi North 23.0 mph 31.1 mph N/A   Clear
6:35 AM 64.4 °F 17.6 °F 16% 30.03 in 10.0 mi North 20.7 mph 29.9 mph N/A   Clear
6:55 AM 64.4 °F 19.4 °F 18% 30.04 in 10.0 mi NNE 18.4 mph 25.3 mph N/A   Clear
7:15 AM 64.4 °F 19.4 °F 18% 30.06 in 10.0 mi NNE 16.1 mph 25.3 mph N/A   Clear
7:35 AM 64.4 °F 19.4 °F 18% 30.08 in 10.0 mi North 19.6 mph 26.5 mph N/A   Clear
7:55 AM 64.4 °F 19.4 °F 18% 30.09 in 10.0 mi NNE 15.0 mph 21.9 mph N/A   Clear
8:15 AM 66.2 °F 17.6 °F 15% 30.10 in 10.0 mi North 17.3 mph 26.5 mph N/A   Clear
8:35 AM 66.2 °F 19.4 °F 17% 30.10 in 10.0 mi North 23.0 mph 32.2 mph N/A   Clear
8:55 AM 66.2 °F 21.2 °F 18% 30.11 in 10.0 mi North 20.7 mph 33.4 mph N/A   Clear
9:15 AM 68.0 °F 23.0 °F 18% 30.11 in 10.0 mi North 29.9 mph 40.3 mph N/A   Clear
9:35 AM 68.0 °F 21.2 °F 17% 30.11 in 10.0 mi North 29.9 mph 41.4 mph N/A   Clear
9:55 AM 68.0 °F 23.0 °F 18% 30.10 in 10.0 mi North 29.9 mph 42.6 mph N/A   Clear
10:15 AM 68.0 °F 21.2 °F 17% 30.10 in 10.0 mi North 29.9 mph 41.4 mph N/A   Clear
10:35 AM 69.8 °F 24.8 °F 18% 30.11 in 10.0 mi NNW 28.8 mph 36.8 mph N/A   Clear
10:55 AM 69.8 °F 23.0 °F 17% 30.11 in 10.0 mi NNW 29.9 mph 41.4 mph N/A   Clear
11:15 AM 71.6 °F 23.0 °F 16% 30.11 in 10.0 mi North 28.8 mph 39.1 mph N/A   Clear
11:35 AM 71.6 °F 24.8 °F 17% 30.10 in 10.0 mi NNW 27.6 mph 38.0 mph N/A   Clear
11:55 AM 71.6 °F 24.8 °F 17% 30.11 in 10.0 mi NNW 21.9 mph 40.3 mph N/A   Clear
12:15 PM 73.4 °F 24.8 °F 16% 30.10 in 10.0 mi NNW 32.2 mph 43.7 mph N/A   Clear
12:35 PM 73.4 °F 24.8 °F 16% 30.09 in 10.0 mi North 29.9 mph 41.4 mph N/A   Clear
12:55 PM 73.4 °F 24.8 °F 16% 30.08 in 10.0 mi North 34.5 mph 40.3 mph N/A   Clear
1:15 PM 73.4 °F 23.0 °F 15% 30.07 in 10.0 mi North 32.2 mph 41.4 mph N/A   Clear
1:35 PM 73.4 °F 23.0 °F 15% 30.06 in 10.0 mi North 31.1 mph 42.6 mph N/A   Clear
1:55 PM 75.2 °F 23.0 °F 14% 30.05 in 10.0 mi NNW 33.4 mph 41.4 mph N/A   Clear
2:15 PM 75.2 °F 23.0 °F 14% 30.05 in 10.0 mi NNW 31.1 mph 42.6 mph N/A   Clear
2:35 PM 75.2 °F 23.0 °F 14% 30.04 in 10.0 mi North 33.4 mph 42.6 mph N/A   Clear
2:55 PM 75.2 °F 23.0 °F 14% 30.04 in 10.0 mi North 33.4 mph 48.3 mph N/A   Clear
3:15 PM 75.2 °F 23.0 °F 14% 30.04 in 10.0 mi North 35.7 mph 46.0 mph N/A   Clear
3:35 PM 75.2 °F 23.0 °F 14% 30.05 in 10.0 mi NNW 28.8 mph 40.3 mph N/A   Clear
3:55 PM 75.2 °F 24.8 °F 15% 30.05 in 10.0 mi North 29.9 mph 39.1 mph N/A   Clear
4:15 PM 75.2 °F 24.8 °F 15% 30.06 in 10.0 mi NNW 29.9 mph 38.0 mph N/A   Clear
4:35 PM 75.2 °F 24.8 °F 15% 30.06 in 10.0 mi North 27.6 mph 38.0 mph N/A   Clear
4:55 PM 75.2 °F 26.6 °F 17% 30.04 in 10.0 mi North 28.8 mph 36.8 mph N/A   Clear
5:15 PM 75.2 °F 26.6 °F 17% 30.05 in 10.0 mi NNW 27.6 mph 33.4 mph N/A   Clear
5:35 PM 75.2 °F 26.6 °F 17% 30.05 in 10.0 mi North 27.6 mph 39.1 mph N/A   Clear
5:55 PM 73.4 °F 28.4 °F 19% 30.07 in 10.0 mi North 25.3 mph 34.5 mph N/A   Clear